SL-12 R/B(2), 22272

Orbit data source: Space-Track

SL-12 R/B(2), 22272 is space debris in GEO originally from a launch on Thu, 17 Dec 1992 UTC launched from the Tyuratam Missile And Space Complex (TTMTR). Debris objects in space refer to the collection of defunct objects orbiting the Earth. Examples of debris include non-operational satellites, rocket bodies, and fragments generated from explosions, collisions, or faulty payload assembly.

Loading next visibility...
Identifier
22272, 1992-088D
Orbit
GEO
Last TLE update
13 hours ago
Origin
Manufacturer
NPO Energiya
Mission
Spacecraft
Bus & Motor
BLOK DM, Unknown motor
Mass
2,440 kg wet, 2,440 kg dry
Launch date (UTC)
1992-12-17 (32 years ago)
Launch vehicle
Unknown
Launch site
Tyuratam Missile And Space Complex (TTMTR)
Object type
Payload
Rocket body
Debris
Shape & HBR
Cyl, 6.27 m
Radar Cross Section
23.597 m², Large (>1 m²)

Expand to show TLE details & history

TLE from 13 hours ago
0 SL-12 R/B(2)
1 22272U 92088D   25128.71108300  .00000094  00000-0  00000+0 0  9992
2 22272  13.9041 351.3242 0009827 151.2461 197.3569  1.00056838118350
Epoch: 2025-05-08T17:03Z
Definitive object data (Epoch: 2025-05-08T17:03:57.571Z)
Latitude
-2.71956°
Longitude
-142.5408°
Altitude
35,886.349 km
Speed
3.07 km/s
True Right ascension
22h 40m 54s
True Declination
-2° 43' 01"
Sunlit
Object was in daylight at TLE epoch
Visualization TLE readout
Latitude
-1.7295°
Longitude
55.5073°
Altitude
35,813.196 km
Speed
3.075 km/s
Apparent Right ascension
11h 34m 59s
Apparent Declination
-7° 54' 42"
Sunlit
Object is in daylight
Visualization observer readout
Local Sidereal Time
14:26:12
Azimuth
229.646° WSW
Elevation
27.972°
Doppler factor
1
Orbital elements
Apogee altitude
35,889.434 km
Perigee altitude
35,806.443 km
Semi-major axis
42,226.076 km
Eccentricity
0.0009827
Inclination
13.9041°
RAAN
351.3242°
Arg. of periapsis
151.2461°
True anomaly
197.32335°
Mean anomaly
197.3569°
Eccentric anomaly
197.34012°
Mean motion
0.25013 °/min
BSTAR
Unknown
Orbital period
1439.23 mins
Loading historical data...
22272 neighbors
Loading maneuver chart data...
Loading SW <> Apogee altitude chart data...
Loading historical data...
Loading historical data...
Loading historical data...
Loading historical data...
Loading historical data...
Loading historical data...
Loading historical data...

SL-12 R/B(2) Visibility forecast

Observer location: undefined°, undefined°

Span
Click to sort rows by Start time (UTC) header in descending order
Start Az.
Max El. time (UTC)
Max El. Az.
Max El.
End time (UTC)
End Az.
1440 mins2025-05-09 06:17:23.903Z229.632° WSW2025-05-10 00:14:23.903Z243.4° WSW33.136°2025-05-10 06:17:23.903Z230.372° WSW
|